CZ-6A DEB

Satellite information

Favourite Embed

Satellite Type and Status

DEBRISIN ORBIT

Key statistics

Satellite CZ-6A DEB at a glance.

Uptime

1033

Days in orbit

Revolutions

≈ 14.9

Per day

Orbit

SSO

Sun Synchronous Orbit

Inclination

98.7

Latest

Satellite identification and parameters

Extended collection of information and parameters for CZ-6A DEB.

Object identification

Identified? True

Debris? True

Object name: CZ-6A DEB

International designator: 2022-151SD

Object number (NORAD): 54940

Object ID (CCSDS): 54940

Country: PEOPLES REPUBLIC OF CHINA (PRC)

Current information (Y/N): Y

RCS size: SMALL

Orbital parameters

Period: 96.853 minutes

Inclination: 98.6749 deg

SMA: 6986.127 km

Apoapsis: 644.308 km

Periapsis: 571.677 km

RAAN: 313.7112 deg

Eccentricy: 0.00519822

Argument of periapsis: 40.6646 deg

Mean anomaly: 319.8431 deg

Mean motion: 14.86784475 rev/day

Mean motion (dot): 0.00031313 rev/day2

B* drag term: 0.0034228762 1/REarth

Two-line elements (TLE)

Creation date: Sept. 8, 2025, 9:49 a.m.

Reference frame: TEME

Reference center: EARTH

Epoch: Sept. 8, 2025, 2:07 a.m. UTC

TLE line 0: 0 CZ-6A DEB

TLE line 1: 1 54940U 22151SD 25251.08825863 .00031313 00000-0 34229-2 0 9991

TLE line 2: 2 54940 98.6749 313.7112 0051982 40.6646 319.8431 14.86784475149384

Live tracking on map

Real-time ground track for satellite CZ-6A DEB.

In-orbit conjunctions

A list of the most updated potential collisions computed for object CZ-6A DEB.

Target Orbit TCA Probability of collision Miss distance Type
SL-14 R/B LEO 2025-01-01 23:34:46 0.0001388743 498.0 (m) ROCKET BODY
COSMOS 192 LEO 2024-10-07 15:50:01 0.0002069701 988.0 (m) PAYLOAD

Associated space launch

Chinese satellite reported for atmospheric/ocean/environmental/spatial parameter research purposes, details TBD.

CZ-6A DEB was lifted into orbit during the mission ‘Long March 6A | Yunhai 3’, on board a Long March 6A space rocket.

The launch took place on Nov. 11, 2022, 10:52 p.m. from Launch Complex 9A.

For more information about the launch, click the button.

Launch to space Long March 6A | Yunhai 3
Long March 6A | Yunhai 3

Agency: N/A

Status: Launch Successful

Launch date: Nov. 11, 2022, 10:52 p.m. UTC

Rocket: Long March 6A

Launch pad: Launch Complex 9A

Location: Taiyuan Satellite Launch Center, People's Republic of China

...

Latest news about this satellite

There are no fresh news available about this satellite. Check back as we update our databases every day.


Newsletter sign-up

Weekly statistics, charts and insights to help you stay on top of the space industry.